107  
ASUS46 KOTX 181410  
RWROTX  
 
EASTERN WASHINGTON/NORTHERN IDAHO ROUNDUP  
NATIONAL WEATHER SERVICE, SPOKANE WA  
700 AM PDT MON OCT 18 2021  
 
NOTE: "FAIR" INDICATED FEW OR NO CLOUDS BELOW 12,000 FEET WITH NO  
SIGNIFICANT WEATHER AND/OR S TO VISIBILITY
.  
   
..NORTHEAST WASHINGTON AND NORTHERN IDAHO PANHANDLE
 
 
 
CITY SKY/WX TMP DP RH WIND PRES REMARKS
 
SPOKANE INTL PTCLDY 40 34 79 S3 29.79R  
SPOKANE DOWNTO CLEAR 38 36 92 CALM 29.79R  
COEUR D ALENE LGT RAIN 38 35 89 NE8 29.79R FOG  
DEER PARK CLEAR 31 29 92 MISG 29.78R  
SANDPOINT N/A 32 32 100 CALM 29.81R  
BONNERS FERRY FAIR 32 30 93 CALM 29.84R  
   
..SOUTHEAST WASHINGTON AND SOUTHERN IDAHO PANHANDLE
 
 
 
CITY SKY/WX TMP DP RH WIND PRES REMARKS
 
WALLA WALLA CLEAR 46 37 71 S8 29.81R  
PULLMAN/MOSCOW PTCLDY 40 33 76 N3 29.79R  
LEWISTON PTCLDY 48 31 51 CALM 29.76R  
LOWELL N/A 41 41 100 CALM 29.79R  
GRANGEVILLE FAIR 39 32 75 NW6 29.76R  
   
..COLUMBIA BASIN
 
 
 
CITY SKY/WX TMP DP RH WIND PRES REMARKS
 
EPHRATA CLEAR 44 36 73 CALM 29.78R  
MOSES LAKE CLEAR 39 33 79 CALM 29.79R  
PASCO CLEAR 40 39 97 N3 29.80R  
RICHLAND SUNNY 46 39 79 CALM 29.80R  
HERMISTON CLEAR 50 42 74 SW7 29.82R  
PENDLETON CLEAR 45 38 76 W5 29.82R  
   
..EAST SLOPES CASCADES
 
 
 
CITY SKY/WX TMP DP RH WIND PRES REMARKS
 
THE DALLES CLEAR 56 43 61 W26G33 29.84R  
YAKIMA CLEAR 35 35 100 W9 29.82R WCI 28  
ELLENSBURG CLEAR 47 36 65 NW9 29.81R  
STAMPEDE PASS FOG 40 39 97 VRB3 29.86R VSB 1/4  
WENATCHEE CLOUDY 46 39 76 W7 29.80R  
OMAK CLEAR 43 31 62 N10 29.81R  
SUNNYSIDE SUNNY 38 36 92 N5 29.81R  
   
..SOUTHERN BRITISH COLUMBIA
 
 
 
CITY SKY/WX TMP DP RH WIND PRES REMARKS
 
PENTICTON CLEAR 41 34 75 N10 29.84R  
CASTLEGAR MOCLDY 37 37 100 VRB2 29.87R FOG  
CRANBROOK PTCLDY 30 28 93 SW3 29.84R  
OSOYOOS N/A 39 36 87 E1 N/A  
CRESTON N/A 41 34 75 E1 N/A  
   
..WESTERN MONTANA
 
 
 
CITY SKY/WX TMP DP RH WIND PRES REMARKS
 
KALISPELL SUNNY 28 26 92 N3 29.80R  
MISSOULA PTCLDY 34 28 79 CALM 29.80R  
   
..NEIGHBORING CITIES
 
 
 
CITY SKY/WX TMP DP RH WIND PRES REMARKS
 
SEATTLE CLOUDY 49 46 90 NW6 29.94R  
PORTLAND MOCLDY 50 42 74 NW6 29.96R  
BOISE MOCLDY 49 32 52 CALM 29.64R  
CALGARY CLOUDY 37 34 87 N14 29.87R  
 
CLICK HERE TO GO TO PREVIOUS BULLETINS.

The Nexlab WA Page
The Nexlab ID Page Main Text Page